This is the latest recevied weather packets stored in our database for station/object DL5ARK. If no packets are shown the sender has not sent any weather packets the latest 10 day(s).
| Time | Temp. | Humidity | Pressure | Rain* | Wind** | Luminosity | Snow |
|---|---|---|---|---|---|---|---|
| 1778078568 | 20° C | 53% | 992.1 hPa | 0 mm | - | - | - |
| 1778078387 | 20° C | 52% | 992.1 hPa | 0 mm | - | - | - |
| 1778078207 | 20.56° C | 53% | 992.1 hPa | 0 mm | - | - | - |
| 1778078027 | 20.56° C | 54% | 992.1 hPa | 0 mm | - | - | - |
| 1778077847 | 20.56° C | 54% | 992.4 hPa | 0 mm | - | - | - |
| 1778077491 | 20.56° C | 53% | 992.1 hPa | 0 mm | - | - | - |
| 1778077308 | 20.56° C | 54% | 992.1 hPa | 0 mm | - | - | - |
| 1778077127 | 20.56° C | 54% | 992.4 hPa | 0 mm | - | - | - |
| 1778076947 | 19.44° C | 54% | 992.4 hPa | 0 mm | - | - | - |
| 1778076767 | 20.56° C | 56% | 992.1 hPa | 0 mm | - | - | - |
| 1778076588 | 20.56° C | 55% | 992.4 hPa | 0 mm | - | - | - |
| 1778076407 | 20° C | 55% | 992.1 hPa | 0 mm | - | - | - |
| 1778076228 | 20° C | 55% | 992.1 hPa | 0 mm | - | - | - |
| 1778076048 | 20° C | 52% | 992.1 hPa | 0 mm | - | - | - |
| 1778075868 | 20° C | 54% | 992.1 hPa | 0 mm | - | - | - |
| 1778075508 | 19.44° C | 56% | 992.1 hPa | 0 mm | - | - | - |
| 1778075327 | 19.44° C | 56% | 992.1 hPa | 0 mm | - | - | - |
| 1778075148 | 19.44° C | 56% | 992.1 hPa | 0 mm | - | - | - |
| 1778074967 | 18.89° C | 54% | 992.4 hPa | 0 mm | - | - | - |
| 1778074787 | 19.44° C | 56% | 992.4 hPa | 0 mm | - | - | - |
| 1778074610 | 19.44° C | 56% | 992.4 hPa | 0 mm | - | - | - |
| 1778074428 | 19.44° C | 54% | 992.4 hPa | 0 mm | - | - | - |
| 1778074247 | 19.44° C | 55% | 992.4 hPa | 0 mm | - | - | - |
| 1778074068 | 19.44° C | 56% | 992.4 hPa | 0 mm | - | - | - |
| 1778073888 | 19.44° C | 54% | 992.4 hPa | 0 mm | - | - | - |
* Rain latest hour (hover to see other rain measurements)
** Current wind speed in m/s (hover to see current wind gust speed)